Terminal Aerodrome Forecast
Issued by NWS Charleston, WV

Current Version | Previous Version | Graphics & Text | Print | Product List | Glossary On
Versions: 1 2 3 4 5 6 7 8 9 10 11 12 13 14 15 16 17 18 19 20 21 22 23
000
FTUS41 KRLX 232108 AAA
TAFCRW
TAF AMD
KCRW 232108Z 2321/2418 21004KT P6SM SCT035 BKN100
     FM240000 24007KT P6SM VCTS BKN050CB
     FM240600 VRB03KT P6SM BKN040
     FM240900 00000KT 3SM BR BKN015
     FM241300 25004KT P6SM BKN035
     FM241700 25004KT P6SM SCT080=

USA.gov is the U.S. government's official web portal to all federal, state and local government web resources and services.